Home   Weather   Glennallen   Past weeks

Flag for USA Past Weather in Glennallen, Alaska, USA — Yesterday and Last 2 Weeks

Now
32 °F

Overcast.


Feels Like: 32 °F
Forecast: 27 / 48 °F
Wind: No wind

Location: Gulkana Airport

Current Time: Sep 26, 2016 at 9:28:18 AM

Latest Report: Sep 26, 2016 at 8:53 AM


Visibility: 10 mi

Pressure: 29.88 "Hg

Humidity: 92%

Dew Point: 30 °F

Location of GlennallenLocation

Past Weather in Glennallen — Graph

°F

Glennallen Temperature Yesterday

Maximum temperature yesterday: 51 °F (at 12:53 PM)
Minimum temperature yesterday: 30 °F (at 11:53 PM)
Average temperature yesterday: 43 °F

High & Low Weather Summary for the Past Weeks

 TemperatureHumidityPressure
High63 °F (Sep 12, 2:53 PM)100% (Sep 13, 7:53 AM)30.29 "Hg (Sep 13, 7:53 AM)
Low27 °F (Sep 17, 6:53 AM)34% (Sep 14, 2:53 PM)28.96 "Hg (Sep 22, 8:53 AM)
Average47 °F69%29.70 "Hg
* Reported Sep 11 7:53 AM — Sep 26 7:53 AM, Glennallen, Weather by CustomWeather, © 2016

Note: Actual official high and low records may vary slightly from our data, if they occured in-between our weather recording intervals... More about our weather records

Advertising

Glennallen Weather History for the Previous 24 Hours

Scroll right to see more
 ConditionsComfort  
Time TempWeatherWind HumidityBarometerVisibility
7:53 AM
Mon, Sep 26
31 °FMostly cloudy.No wind92%29.87 "Hg10 mi
6:53 AM30 °FMostly cloudy.No wind92%29.87 "Hg10 mi
5:53 AM30 °FMostly cloudy.No wind92%29.86 "Hg10 mi
4:53 AM30 °FOvercast.No wind92%29.86 "Hg10 mi
3:53 AM30 °FOvercast.3 mph89%29.86 "Hg10 mi
2:53 AM29 °FMostly cloudy.No wind93%29.86 "Hg10 mi
1:53 AM29 °FPassing clouds.5 mph93%29.86 "Hg10 mi
12:53 AM28 °FClear.No wind93%29.87 "Hg10 mi
11:53 PM
Sun, Sep 25
30 °FPassing clouds.3 mph89%29.87 "Hg10 mi
10:53 PM32 °FPassing clouds.5 mph88%29.87 "Hg10 mi
9:53 PM36 °FPassing clouds.3 mph79%29.88 "Hg10 mi
8:53 PM41 °FClear.5 mph70%29.86 "Hg10 mi
7:53 PM42 °FPassing clouds.8 mph68%29.86 "Hg10 mi
6:53 PM46 °FOvercast.6 mph58%29.86 "Hg10 mi
5:53 PM50 °FOvercast.10 mph46%29.85 "Hg10 mi
4:53 PM51 °FPartly sunny.10 mph44%29.86 "Hg10 mi
3:53 PM50 °FPartly sunny.10 mph48%29.87 "Hg10 mi
2:53 PM50 °FScattered clouds.14 mph50%29.88 "Hg10 mi
1:53 PM51 °FSunny.21 mph46%29.88 "Hg10 mi
12:53 PM51 °FSunny.14 mph48%29.88 "Hg10 mi
11:53 AM48 °FSunny.13 mph56%29.88 "Hg10 mi
10:53 AM46 °FSunny.12 mph68%29.87 "Hg10 mi
9:53 AM41 °FSunny.12 mph82%29.88 "Hg10 mi
Weather by CustomWeather, © 2016

See weather overviewHow to use our weather pages